Theta_e
344 347 347 347 346 346 343 345 346 349 345 337 333 332 332 330 331 331 330 331 331 331 330 330 329 329 329 329 329 330 330 330 331 332 333 336 336 334
342 343 344 346 346 343 341 340 341 341 342 336 330 328 328 328 327 327 327 328 327 327 327 327 326 326 327 327 327 327 328 329 330 333 332 334 332 331
341 342 344 345 345 345 343 341 343 343 338 328 327 325 324 325 324 323 323 322 322 323 323 323 324 324 325 325 325 327 328 329 331 331 331 330 329 327
339 341 342 343 344 344 345 344 344 341 340 329 323 321 321 322 322 322 320 320 319 320 321 321 321 322 321 322 323 324 325 325 326 327 326 325 324 323
336 337 338 339 341 341 341 340 338 337 334 328 322 320 319 320 319 320 319 320 318 317 318 319 319 318 318 318 319 319 320 321 323 324 324 323 321 319
333 333 333 335 338 339 338 338 336 332 330 328 324 320 319 319 319 318 318 318 318 317 317 316 314 314 313 313 314 315 317 318 319 319 319 318 316 312
331 330 327 326 330 333 336 337 336 335 329 325 323 321 319 319 320 319 320 320 317 318 320 318 316 315 315 313 312 312 313 314 315 315 313 311 306 306
326 327 327 327 324 325 327 330 332 333 332 330 328 327 325 323 321 322 323 324 324 322 320 317 318 317 316 313 309 308 308 308 307 307 306 305 304 304
324 324 324 324 326 326 324 324 324 326 330 331 330 329 328 327 325 323 323 323 323 318 320 320 319 318 316 310 308 308 307 307 306 305 304 303 302 303
325 324 322 320 322 325 323 320 318 319 323 324 325 325 325 325 325 324 323 322 320 321 321 320 318 317 316 313 308 308 308 307 307 306 305 303 302 302
324 324 324 320 316 320 321 318 314 311 307 306 306 306 306 312 319 320 323 321 322 321 320 320 317 317 316 315 312 309 308 307 306 305 304 303 303 303
324 322 319 319 317 317 319 318 318 316 315 315 314 313 313 310 309 312 312 314 316 319 321 319 318 317 316 315 314 312 309 308 308 305 303 304 303 306
319 318 312 308 308 314 318 319 318 318 315 314 312 311 311 311 310 311 312 310 311 317 315 315 317 316 313 314 315 313 312 312 310 307 304 303 303 304
315 311 307 306 306 306 308 308 308 312 313 313 311 310 309 309 309 309 310 311 311 312 312 314 313 313 312 312 314 314 312 312 311 311 311 310 306 302
309 308 305 305 307 305 305 308 309 310 310 310 309 309 308 309 309 309 309 310 312 311 310 311 311 309 309 310 311 313 312 312 312 311 310 309 310 310
306 306 308 310 309 308 309 309 309 308 308 308 308 308 307 307 307 306 306 306 306 309 313 311 311 310 309 308 309 309 309 312 313 312 311 310 309 310
308 308 310 312 312 311 310 310 309 309 308 308 307 307 307 307 307 306 306 306 307 307 308 313 313 310 308 308 308 308 308 308 309 310 311 311 309 310
310 313 314 313 312 311 310 309 309 308 308 309 308 308 307 307 306 307 307 306 307 307 306 306 306 307 307 309 309 309 308 307 307 307 308 308 308 308
313 315 313 312 311 310 310 309 310 308 310 309 309 308 307 307 307 307 307 307 307 306 306 306 306 306 307 308 306 306 306 307 306 307 306 305 305 307
314 314 312 311 311 311 311 310 310 310 309 309 309 308 308 307 307 307 307 306 306 306 306 306 306 307 306 305 305 304 303 304 305 305 306 305 304 305
312 312 312 311 311 311 311 311 311 310 309 309 309 309 309 308 308 307 307 306 305 307 308 307 307 304 305 305 306 306 306 304 303 304 304 304 304 304
311 311 311 311 312 312 311 311 311 310 311 310 310 309 309 309 308 308 307 307 307 307 307 306 306 307 306 306 306 306 306 306 304 304 303 302 303 303
310 310 310 311 311 311 311 311 311 311 310 310 310 309 309 309 308 308 307 307 307 307 306 306 306 306 306 306 306 305 305 305 305 305 305 304 303 302
Wind_Speed
6 6 4 5 6 4 4 4 7 3 2 6 4 8 9 9 9 10 10 8 7 6 6 6 5 6 6 7 7 7 8 7 7 5 4 6 9 12
6 6 5 3 2 1 3 5 5 5 3 3 4 9 9 11 11 12 12 10 9 7 7 6 6 7 7 8 9 10 10 10 8 7 6 8 14 20
10 9 8 5 4 6 6 5 5 6 8 5 8 11 10 12 12 12 12 12 12 10 11 12 12 12 12 12 13 12 12 11 10 10 12 20 21 21
14 13 15 12 11 10 7 6 4 5 7 10 11 7 12 11 13 13 12 12 11 11 11 11 10 9 9 10 10 11 12 14 17 23 23 25 23 21
13 14 14 14 14 13 11 9 10 7 7 14 11 11 13 11 12 11 10 10 10 9 10 8 7 8 8 7 7 8 9 10 10 11 12 12 12 11
14 15 16 14 13 12 12 11 10 11 13 13 14 12 10 8 7 8 7 7 8 6 7 8 9 11 11 11 9 8 8 8 8 7 8 8 8 8
14 15 18 19 17 13 11 11 10 11 13 14 13 10 9 7 4 4 4 5 5 6 4 4 4 5 7 10 11 10 10 9 9 8 8 9 11 11
12 13 13 13 19 20 18 15 14 12 12 12 11 9 7 6 5 4 4 2 2 1 1 1 3 4 5 5 8 8 9 9 9 9 9 9 9 9
12 11 11 12 11 12 16 18 19 17 15 11 11 9 8 5 5 5 3 1 2 0 0 2 1 2 2 3 4 5 5 6 6 6 6 6 7 8
11 11 12 11 11 11 12 15 17 16 14 13 12 11 9 7 5 3 3 1 2 1 1 3 1 1 1 1 2 2 2 2 3 3 3 3 4 5
8 9 9 9 11 12 11 12 14 15 17 17 16 13 10 7 3 4 2 3 2 3 3 2 1 1 3 4 4 4 4 4 3 2 2 3 4 3
7 8 7 8 8 10 8 8 9 9 8 8 9 10 9 10 11 8 5 7 8 3 2 3 3 5 3 5 4 5 5 6 6 5 4 4 6 7
6 7 7 10 8 7 8 6 6 5 5 4 4 5 4 5 6 7 7 8 8 8 5 5 4 3 6 5 7 6 6 8 6 7 8 7 7 8
7 8 10 9 9 10 9 6 5 4 2 2 3 4 5 5 5 6 6 5 4 5 5 4 6 6 10 10 2 3 8 7 7 9 10 10 8 10
12 10 11 11 11 11 11 10 6 4 3 3 4 5 5 5 4 3 3 4 5 2 2 3 5 7 8 9 10 7 9 8 10 10 10 10 11 13
13 12 9 6 7 7 5 5 5 5 5 5 4 4 3 4 4 5 6 6 6 2 5 4 3 5 8 8 8 9 10 4 5 9 12 11 11 12
12 9 8 7 5 5 4 4 3 3 5 5 5 4 4 5 5 5 5 5 5 4 5 4 5 6 7 7 9 9 9 10 8 1 7 11 14 18
10 10 7 5 4 5 4 5 4 4 5 5 5 5 5 5 7 4 5 5 6 5 6 5 8 10 10 11 12 9 10 11 8 8 9 14 16 14
10 8 7 6 5 4 4 3 4 4 2 4 5 5 5 5 6 5 4 5 6 6 7 7 7 9 10 7 6 4 10 13 14 12 12 14 17 16
10 9 8 7 5 4 3 2 2 1 0 3 3 5 5 7 7 6 5 6 8 10 9 8 8 7 9 12 14 17 15 12 12 16 14 15 16 15
11 9 7 7 6 4 4 3 2 2 2 4 4 5 6 7 7 8 8 5 6 9 10 10 5 8 11 12 14 14 13 8 12 12 16 18 17 15
9 8 9 7 6 5 5 5 6 5 5 6 6 8 8 9 10 10 11 12 13 13 14 15 13 12 12 13 17 17 17 16 11 17 17 16 15 17
9 9 10 9 7 7 7 7 8 9 8 8 9 10 11 13 13 14 15 16 17 17 18 19 18 18 17 17 16 16 17 16 16 19 15 20 18 18
Wind_Direction
6 357 320 286 238 205 204 211 210 152 107 141 115 114 111 103 98 95 96 95 89 85 76 65 53 43 34 29 24 16 11 5 357 1 35 66 70 83
24 18 2 343 255 166 158 148 158 129 117 106 101 131 123 109 99 100 97 97 90 83 79 69 56 50 45 44 41 31 31 32 33 56 60 96 104 106
45 37 30 50 96 102 95 107 132 148 132 107 125 130 109 118 114 109 102 94 84 85 81 78 76 72 65 60 56 59 59 66 79 90 103 113 108 104
47 44 38 48 63 65 77 69 102 93 135 124 129 119 113 119 122 115 110 106 87 82 84 80 74 65 62 62 61 59 61 63 75 94 97 100 99 98
51 50 45 49 51 57 60 70 84 90 133 151 132 135 123 129 114 107 103 102 89 59 51 60 70 65 55 51 54 59 65 73 75 79 90 95 87 80
60 57 52 50 50 60 70 76 82 92 104 115 119 124 126 134 122 116 108 104 95 92 75 74 67 60 61 59 62 70 74 82 85 81 72 71 71 67
70 67 63 62 66 73 73 69 83 93 99 107 113 122 133 142 163 155 132 132 95 99 93 78 78 74 62 53 47 73 83 86 87 84 82 86 90 88
71 70 67 62 62 68 72 81 81 85 98 109 119 119 133 129 132 145 146 156 154 87 128 94 94 71 70 70 88 86 92 95 94 94 93 93 95 96
73 70 68 63 65 69 64 66 70 77 82 86 86 83 97 100 130 143 133 18 26 178 28 89 4 64 76 77 106 106 103 100 96 93 92 99 105 104
72 69 67 59 74 73 77 76 73 72 75 78 80 77 78 80 84 105 145 86 116 146 258 284 141 160 175 193 190 153 149 141 132 123 121 128 131 127
79 80 67 62 75 83 85 89 88 85 80 81 80 78 74 72 82 270 169 244 225 230 236 275 62 258 226 235 212 238 214 207 205 199 179 175 169 167
83 72 76 72 77 95 90 97 92 87 87 85 73 63 60 51 58 42 357 319 319 136 151 280 240 298 205 196 205 216 223 237 236 228 230 221 209 234
108 96 82 78 74 93 92 86 102 96 93 89 73 56 49 56 43 31 23 4 345 66 38 294 308 288 277 280 204 225 233 198 228 233 239 234 227 240
125 111 113 95 84 78 82 91 95 85 79 76 30 32 13 21 25 14 12 1 357 349 349 345 289 293 307 299 8 181 234 235 237 231 219 219 258 249
131 133 122 104 87 83 87 88 75 74 66 59 32 19 3 357 326 316 294 313 243 248 310 319 324 337 296 296 303 225 227 234 237 235 238 242 238 224
145 144 147 141 119 112 108 83 76 58 39 30 19 14 1 356 351 347 328 327 317 230 180 211 260 297 316 320 310 296 298 252 252 255 260 257 264 260
159 157 169 178 163 136 109 85 77 68 43 25 13 8 12 356 -0 349 344 333 318 342 329 212 198 265 266 267 294 306 308 297 292 257 260 276 269 263
172 187 184 171 139 122 122 121 112 86 46 28 19 7 355 351 352 328 337 337 325 331 327 328 314 312 300 256 235 293 296 297 288 300 289 278 284 277
216 192 173 167 148 134 127 112 107 77 27 17 13 9 354 339 328 340 328 334 339 333 326 316 313 313 313 313 348 223 303 299 294 284 285 298 290 283
224 188 182 181 176 175 172 169 162 172 337 349 360 1 357 343 330 333 321 348 343 333 318 314 305 313 326 321 316 306 287 270 284 289 291 297 294 274
197 188 191 185 195 201 203 215 246 261 316 329 327 331 336 331 329 320 320 286 288 293 298 300 339 314 300 291 280 291 330 272 260 278 290 289 290 285
190 195 188 201 199 200 202 217 228 231 247 275 304 315 310 307 308 312 310 312 306 304 300 298 292 275 279 286 295 302 306 315 296 276 268 262 271 286
195 203 191 190 207 209 230 232 252 267 272 276 286 295 303 300 303 303 300 299 296 299 300 294 287 283 279 277 274 284 289 294 305 305 282 269 263 260